GW0097 Weather Reports


time (UTC)temp
C
wind
direction
speed
KPH
gust
KPH
rain 1hr
cm
rain 24hr
cm
rain mn
cm
humidity
%
barometer
mb
20260506233006 13 270 3.2 9.7 0.00 0.00 0.00 85 1021.5
20260506232006 13 245 3.2 9.7 0.00 0.00 0.00 86 1021.4
20260506231006 13 218 3.2 9.7 0.00 0.00 0.00 87 1021.4
20260506230008 13 226 1.6 9.7 0.00 0.00 0.00 87 1021.6
20260506230006 13 262 1.6 11.3 0.00 0.00 0.00 87 1021.6
20260506225006 13 273 3.2 9.7 0.00 0.00 0.00 87 1021.5
20260506224006 13 222 4.8 12.9 0.00 0.00 0.00 87 1021.6
20260506223007 13 268 3.2 9.7 0.00 0.00 0.00 87 1021.6
20260506222006 13 230 3.2 8.0 0.00 0.00 0.00 85 1021.7
20260506221006 13 234 1.6 9.7 0.00 0.00 0.00 85 1021.8
20260506220006 13 229 1.6 11.3 0.00 0.00 0.00 84 1021.7
20260506215006 13 221 1.6 8.0 0.00 0.00 0.00 84 1021.7
20260506214006 13 216 4.8 14.5 0.00 0.00 0.00 84 1021.6
20260506212006 13 225 3.2 8.0 0.00 0.00 0.00 86 1021.6
20260506211007 13 221 3.2 8.0 0.00 0.00 0.00 87 1021.6
20260506210005 12 221 3.2 9.7 0.00 0.00 0.00 88 1021.6
20260506205006 13 184 3.2 9.7 0.00 0.00 0.00 87 1021.6
20260506204006 12 191 3.2 11.3 0.00 0.00 0.00 88 1021.6
20260506203006 12 253 3.2 11.3 0.00 0.00 0.00 87 1021.5
20260506202006 12 240 1.6 11.3 0.00 0.00 0.00 88 1021.4
20260506201006 12 221 1.6 4.8 0.00 0.00 0.00 89 1021.4
20260506200006 12 211 3.2 11.3 0.00 0.00 0.00 89 1021.3
20260506195005 12 230 1.6 4.8 0.00 0.00 0.00 90 1021.3
20260506194006 12 218 1.6 8.0 0.00 0.00 0.00 91 1021.3
20260506193007 12 244 3.2 9.7 0.00 0.00 0.00 91 1021.2
20260506192006 12 233 3.2 9.7 0.00 0.00 0.00 90 1021.1
20260506191006 12 217 3.2 9.7 0.00 0.00 0.00 90 1021.1
20260506190006 12 208 1.6 4.8 0.00 0.00 0.00 90 1021.1
20260506185006 12 193 0.0 4.8 0.00 0.00 0.00 90 1021.0
20260506184006 12 204 1.6 4.8 0.00 0.00 0.00 90 1020.9
20260506183006 12 217 3.2 8.0 0.00 0.00 0.00 89 1020.8
20260506182006 12 219 1.6 9.7 0.00 0.00 0.00 89 1020.7
20260506181006 12 226 1.6 4.8 0.00 0.00 0.00 89 1020.8
20260506180006 12 180 1.6 4.8 0.00 0.00 0.00 89 1020.8
20260506175006 12 239 1.6 8.0 0.00 0.00 0.00 87 1020.8
20260506174005 12 312 0.0 4.8 0.00 0.00 0.00 88 1020.6
20260506173006 12 264 1.6 4.8 0.00 0.00 0.00 87 1020.5
20260506172006 12 222 3.2 4.8 0.00 0.00 0.00 86 1020.5
20260506171006 12 221 0.0 3.2 0.00 0.00 0.00 86 1020.4
20260506170005 12 234 1.6 4.8 0.00 0.00 0.00 86 1020.4
20260506165006 12 227 1.6 4.8 0.00 0.00 0.00 86 1020.4
20260506164006 12 231 3.2 8.0 0.00 0.00 0.00 85 1020.3
20260506162005 12 236 1.6 8.0 0.00 0.00 0.00 86 1020.2
20260506161006 12 231 3.2 8.0 0.00 0.00 0.00 86 1020.1
20260506155007 12 238 1.6 4.8 0.00 0.00 0.00 86 1019.8
20260506155005 12 239 1.6 8.0 0.00 0.00 0.00 86 1019.8
20260506153006 12 188 1.6 4.8 0.00 0.00 0.00 88 1019.4
20260506152005 12 236 0.0 4.8 0.00 0.00 0.00 89 1019.7
20260506151006 12 172 1.6 4.8 0.00 0.00 0.00 88 1019.7
20260506150005 12 206 0.0 4.8 0.00 0.00 0.00 89 1019.8
20260506145007 12 181 1.6 4.8 0.00 0.00 0.00 89 1019.6
20260506145005 12 186 1.6 4.8 0.00 0.00 0.00 89 1019.6
20260506144006 11 234 1.6 3.2 0.00 0.00 0.00 89 1019.4
20260506143006 11 166 1.6 3.2 0.00 0.00 0.00 90 1019.1
20260506142005 11 250 1.6 4.8 0.00 0.00 0.00 90 1019.2
20260506141005 11 276 0.0 4.8 0.00 0.00 0.00 90 1019.2
20260506140005 11 179 0.0 3.2 0.00 0.00 0.00 90 1019.0
20260506135005 11 238 0.0 1.6 0.00 0.00 0.00 90 1019.0
20260506134007 11 168 1.6 3.2 0.00 0.00 0.00 90 1019.0
20260506134005 11 168 0.0 3.2 0.00 0.00 0.00 90 1019.0
20260506133005 11 199 0.0 3.2 0.00 0.00 0.00 90 1019.0
20260506132005 11 253 0.0 4.8 0.00 0.00 0.00 90 1019.3
20260506131005 11 260 1.6 4.8 0.00 0.00 0.00 90 1019.1
20260506130006 11 206 1.6 3.2 0.00 0.00 0.00 91 1019.0
20260506125005 11 233 1.6 3.2 0.00 0.00 0.00 91 1019.0
20260506124005 11 247 0.0 4.8 0.00 0.00 0.00 90 1018.7
20260506123005 11 232 0.0 3.2 0.00 0.00 0.00 90 1018.8
20260506122005 11 222 0.0 4.8 0.00 0.00 0.00 90 1018.7
20260506121005 11 230 1.6 4.8 0.00 0.00 0.00 90 1018.6
20260506120005 11 242 1.6 4.8 0.00 0.00 0.00 90 1018.4
20260506115005 11 232 1.6 4.8 0.00 0.00 0.00 90 1018.4
20260506114005 11 260 0.0 4.8 0.00 0.00 0.00 89 1018.3
20260506113005 11 285 0.0 4.8 0.00 0.00 0.00 89 1018.3
20260506112005 11 263 0.0 3.2 0.00 0.00 0.00 90 1018.2
20260506111005 11 254 1.6 3.2 0.00 0.00 0.00 90 1018.2
20260506110005 11 240 1.6 4.8 0.00 0.00 0.00 90 1018.2
20260506105005 11 219 0.0 4.8 0.00 0.00 0.00 90 1018.1
20260506104005 11 243 1.6 4.8 0.00 0.00 0.00 90 1018.1
20260506103005 11 191 0.0 4.8 0.00 0.00 0.00 90 1018.1
20260506102005 11 226 1.6 8.0 0.00 0.00 0.00 90 1018.0
20260506101005 11 219 1.6 8.0 0.00 0.00 0.00 90 1018.0
20260506100005 11 231 0.0 3.2 0.00 0.00 0.00 89 1018.0
20260506095007 11 247 1.6 4.8 0.00 0.00 0.00 89 1017.9
20260506094005 11 252 1.6 4.8 0.00 0.00 0.00 89 1017.9
20260506093008 12 223 1.6 4.8 0.00 0.00 0.00 90 1017.8
20260506092005 12 233 1.6 4.8 0.00 0.00 0.00 89 1017.7
20260506091007 12 282 1.6 4.8 0.00 0.00 0.00 90 1017.7
20260506090005 12 211 1.6 4.8 0.00 0.00 0.00 90 1017.7
20260506085007 12 228 0.0 3.2 0.00 0.00 0.00 90 1017.7
20260506084007 12 253 1.6 3.2 0.00 0.00 0.00 90 1017.7
20260506083007 12 226 1.6 4.8 0.00 0.00 0.00 89 1017.7
20260506082006 12 163 0.0 3.2 0.00 0.00 0.00 89 1017.5
20260506081007 12 246 0.0 4.8 0.00 0.00 0.00 89 1017.5
20260506073005 12 237 1.6 4.8 0.00 0.00 0.00 90 1017.0
20260506072007 12 220 0.0 4.8 0.00 0.00 0.00 90 1017.1
20260506071007 12 214 1.6 4.8 0.00 0.00 0.00 90 1017.0
20260506062007 12 271 0.0 3.2 0.00 0.00 0.00 89 1017.0
20260506061007 12 225 0.0 4.8 0.00 0.00 0.00 89 1016.8
20260506051007 12 241 0.0 4.8 0.00 0.00 0.00 89 1016.6
20260506045006 12 195 0.0 4.8 0.00 0.00 0.00 90 1016.5
20260506044007 12 258 0.0 4.8 0.00 0.00 0.00 91 1016.6
20260506043007 12 213 1.6 3.2 0.00 0.00 0.00 90 1016.6
20260506042007 12 251 1.6 3.2 0.00 0.00 0.00 91 1016.5
20260506041007 12 208 0.0 4.8 0.00 0.00 0.00 91 1016.5
20260506040007 12 243 0.0 3.2 0.00 0.00 0.00 91 1016.4
20260506035006 12 281 0.0 3.2 0.00 0.00 0.00 91 1016.3
20260506034006 12 217 0.0 4.8 0.00 0.00 0.00 91 1015.9
20260506033008 12 247 1.6 4.8 0.00 0.00 0.00 91 1016.0
20260506032007 13 229 0.0 3.2 0.00 0.00 0.00 90 1015.8
20260506031006 13 211 1.6 4.8 0.00 0.00 0.00 91 1015.6
20260506030006 13 152 0.0 4.8 0.00 0.00 0.00 91 1015.7
20260506025007 13 242 0.0 4.8 0.00 0.00 0.00 90 1015.6
20260506024006 13 293 1.6 4.8 0.00 0.00 0.00 89 1015.6
20260506023006 13 285 0.0 4.8 0.00 0.00 0.00 89 1015.5
20260506022007 13 301 0.0 4.8 0.00 0.00 0.00 89 1015.5
20260506021008 13 261 1.6 4.8 0.00 0.00 0.00 89 1015.5
20260506021006 13 284 1.6 4.8 0.00 0.00 0.00 89 1015.5
20260506020006 13 250 3.2 8.0 0.00 0.00 0.00 89 1015.4
20260506015006 13 279 1.6 4.8 0.00 0.00 0.00 88 1015.5
20260506014006 13 283 3.2 4.8 0.00 0.00 0.00 88 1015.5
20260506013007 13 296 1.6 4.8 0.00 0.00 0.00 88 1015.6
20260506012006 13 224 1.6 4.8 0.00 0.00 0.00 87 1015.7
20260506011006 14 291 0.0 8.0 0.00 0.00 0.00 87 1015.7
20260506010007 14 292 0.0 4.8 0.00 0.00 0.00 86 1015.4
20260506005006 14 222 1.6 4.8 0.00 0.00 0.00 84 1015.4
20260506004006 14 232 1.6 4.8 0.00 0.00 0.00 85 1015.5
20260506003006 14 237 1.6 4.8 0.00 0.00 0.00 85 1015.5
20260506002006 14 219 1.6 4.8 0.00 0.00 0.00 84 1015.6
20260506001006 14 258 1.6 4.8 0.00 0.00 0.00 85 1015.7
20260506000007 14 237 1.6 4.8 0.00 0.00 0.00 86 1015.9
20260505235006 14 298 4.8 9.7 0.00 0.00 0.00 86 1016.0
20260505234009 15 285 1.6 4.8 0.00 0.00 0.00 85 1016.1
20260505234006 15 277 1.6 8.0 0.00 0.00 0.00 84 1016.1